EW9998 Weather Reports


time (UTC)temp
C
wind
direction
speed
KPH
gust
KPH
rain 1hr
cm
rain 24hr
cm
rain mn
cm
humidity
%
barometer
mb
20260504081541 0 257 0.0 0.0 0.00 0.00 0.00 91 1010.6
20260504050011 3 257 0.0 0.0 0.00 0.00 0.00 81 1010.3
20260504044512 3 257 0.0 0.0 0.00 0.00 0.00 80 1010.4
20260504043012 3 257 0.0 1.6 0.00 0.00 0.00 80 1010.4
20260504041507 3 257 0.0 1.6 0.00 0.00 0.00 80 1010.5
20260504040005 3 255 0.0 0.0 0.00 0.00 0.00 80 1010.4
20260504034508 3 255 0.0 0.0 0.00 0.00 0.00 79 1010.5
20260504033004 3 256 0.0 0.0 0.00 0.00 0.00 79 1010.5
20260504031509 3 256 0.0 0.0 0.00 0.00 0.00 78 1010.5
20260504030101 3 255 0.0 0.0 0.00 0.00 0.00 77 1010.5
20260504024545 3 255 0.0 0.0 0.00 0.00 0.00 75 1010.4
20260504023027 4 255 0.0 1.6 0.00 0.00 0.00 74 1010.4
20260504021526 5 255 0.0 0.0 0.00 0.00 0.00 72 1010.3
20260504020020 5 255 0.0 0.0 0.00 0.00 0.00 70 1010.2
20260504014516 5 256 0.0 0.0 0.00 0.00 0.00 69 1010.1
20260504013019 6 256 0.0 0.0 0.00 0.00 0.00 66 1010.1
20260504011515 6 256 0.0 0.0 0.00 0.00 0.00 65 1009.9
20260504010013 6 256 0.0 0.0 0.00 0.00 0.00 63 1009.7
20260504004532 7 255 0.0 0.0 0.00 0.00 0.00 62 1009.6
20260504003016 7 256 0.0 0.0 0.00 0.00 0.00 61 1009.6
20260504001613 8 255 0.0 0.0 0.00 0.00 0.00 57 1009.5
20260504000100 8 360 0.0 0.0 0.00 0.00 0.00 52 1009.5
20260503234554 9 360 0.0 1.6 0.00 0.00 0.00 51 1009.4
20260503233036 10 360 0.0 3.2 0.00 0.00 0.00 47 1009.3
20260503231536 10 360 3.2 8.0 0.00 0.00 0.00 46 1009.3
20260503230018 10 360 0.0 4.8 0.00 0.00 0.00 45 1009.2
20260503224517 10 271 3.2 9.7 0.00 0.00 0.00 44 1009.2
20260503223113 10 264 1.6 6.4 0.00 0.00 0.00 42 1009.1
20260503221600 10 360 1.6 14.5 0.00 0.00 0.00 40 1008.9
20260503220045 10 221 0.0 6.4 0.00 0.00 0.00 40 1008.9
20260503214553 10 360 3.2 9.7 0.00 0.00 0.00 38 1008.9
20260503213033 11 215 0.0 8.0 0.00 0.00 0.00 35 1008.5
20260503211528 11 360 1.6 14.5 0.00 0.00 0.00 34 1008.4
20260503210025 11 360 3.2 14.5 0.00 0.00 0.00 32 1008.7
20260503204528 11 360 1.6 19.3 0.00 0.00 0.00 32 1008.5
20260503203025 11 360 4.8 16.1 0.00 0.00 0.00 31 1008.6
20260503201522 11 360 1.6 11.3 0.00 0.00 0.00 31 1008.5
20260503200021 11 360 3.2 16.1 0.00 0.00 0.00 31 1008.7
20260503194521 10 360 0.0 12.9 0.00 0.00 0.00 32 1009.1
20260503193106 10 360 3.2 8.0 0.00 0.00 0.00 34 1009.1
20260503191701 9 360 3.2 14.5 0.00 0.00 0.00 34 1009.4
20260503190044 11 360 1.6 4.8 0.00 0.00 0.00 34 1009.4
20260503184535 10 360 0.0 0.0 0.00 0.00 0.00 36 1009.6
20260503183020 8 360 0.0 14.5 0.00 0.00 0.00 39 1009.8
20260503181537 8 360 3.2 14.5 0.00 0.00 0.00 38 1009.9
20260503180032 8 360 3.2 12.9 0.00 0.00 0.00 39 1010.1
20260503174517 8 360 3.2 14.5 0.00 0.00 0.00 39 1010.1
20260503173017 7 360 3.2 14.5 0.00 0.00 0.00 39 1010.4
20260503171523 8 360 1.6 8.0 0.00 0.00 0.00 39 1010.4